Year,Month,Day,Hour,Minute,Value (Times are PST for temperature in C)
2021,12,27,00,00,-7.40
2021,12,27,00,01,-7.40
2021,12,27,00,02,-7.40
2021,12,27,00,03,-7.40
2021,12,27,00,04,-7.50
2021,12,27,00,05,-7.50
2021,12,27,00,06,-7.50
2021,12,27,00,07,-7.50
2021,12,27,00,08,-7.50
2021,12,27,00,09,-7.50
2021,12,27,00,10,-7.50
2021,12,27,00,11,-7.50
2021,12,27,00,12,-7.50
2021,12,27,00,13,-7.60
2021,12,27,00,14,-7.60
2021,12,27,00,15,-7.60
2021,12,27,00,16,-7.60
2021,12,27,00,17,-7.60
2021,12,27,00,18,-7.60
2021,12,27,00,19,-7.60
2021,12,27,00,20,-7.60
2021,12,27,00,21,-7.60
2021,12,27,00,22,-7.60
2021,12,27,00,23,-7.60
2021,12,27,00,24,-7.60
2021,12,27,00,25,-7.60
2021,12,27,00,26,-7.60
2021,12,27,00,27,-7.60
2021,12,27,00,28,-7.60
2021,12,27,00,29,-7.60
2021,12,27,00,30,-7.60
2021,12,27,00,31,-7.60
2021,12,27,00,32,-7.60
2021,12,27,00,33,-7.70
2021,12,27,00,34,-7.70
2021,12,27,00,35,-7.70
2021,12,27,00,36,-7.70
2021,12,27,00,37,-7.70
2021,12,27,00,38,-7.70
2021,12,27,00,39,-7.70
2021,12,27,00,40,-7.60
2021,12,27,00,41,-7.60
2021,12,27,00,42,-7.60
2021,12,27,00,43,-7.60
2021,12,27,00,44,-7.60
2021,12,27,00,45,-7.60
2021,12,27,00,46,-7.60
2021,12,27,00,47,-7.60
2021,12,27,00,48,-7.60
2021,12,27,00,49,-7.60
2021,12,27,00,50,-7.70
2021,12,27,00,51,-7.70
2021,12,27,00,52,-7.70
2021,12,27,00,53,-7.70
2021,12,27,00,54,-7.60
2021,12,27,00,55,-7.60
2021,12,27,00,56,-7.60
2021,12,27,00,57,-7.70
2021,12,27,00,58,-7.70
2021,12,27,00,59,-7.60
2021,12,27,01,00,-7.60
2021,12,27,01,01,-7.60
2021,12,27,01,02,-7.60
2021,12,27,01,03,-7.60
2021,12,27,01,04,-7.60
2021,12,27,01,05,-7.60
2021,12,27,01,06,-7.60
2021,12,27,01,07,-7.60
2021,12,27,01,08,-7.60
2021,12,27,01,09,-7.60
2021,12,27,01,10,-7.60
2021,12,27,01,11,-7.60
2021,12,27,01,12,-7.60
2021,12,27,01,13,-7.60
2021,12,27,01,14,-7.60
2021,12,27,01,15,-7.60
2021,12,27,01,16,-7.70
2021,12,27,01,17,-7.70
2021,12,27,01,18,-7.70
2021,12,27,01,19,-7.70
2021,12,27,01,20,-7.70
2021,12,27,01,21,-7.70
2021,12,27,01,22,-7.70
2021,12,27,01,23,-7.70
2021,12,27,01,24,-7.70
2021,12,27,01,25,-7.70
2021,12,27,01,26,-7.80
2021,12,27,01,27,-7.80
2021,12,27,01,28,-7.80
2021,12,27,01,29,-7.80
2021,12,27,01,30,-7.80
2021,12,27,01,31,-7.80
2021,12,27,01,32,-7.80
2021,12,27,01,33,-7.80
2021,12,27,01,34,-7.80
2021,12,27,01,35,-7.80
2021,12,27,01,36,-7.80
2021,12,27,01,37,-7.80
2021,12,27,01,38,-7.80
2021,12,27,01,39,-7.80
2021,12,27,01,40,-7.80
2021,12,27,01,41,-7.80
2021,12,27,01,42,-7.80
2021,12,27,01,43,-7.80
2021,12,27,01,44,-7.80
2021,12,27,01,45,-7.80
2021,12,27,01,46,-7.90
2021,12,27,01,47,-7.90
2021,12,27,01,48,-7.80
2021,12,27,01,49,-7.80
2021,12,27,01,50,-7.80
2021,12,27,01,51,-7.80
2021,12,27,01,52,-7.80
2021,12,27,01,53,-7.80
2021,12,27,01,54,-7.80
2021,12,27,01,55,-7.80
2021,12,27,01,56,-7.80
2021,12,27,01,57,-7.80
2021,12,27,01,58,-7.80
2021,12,27,01,59,-7.80
2021,12,27,02,00,-7.80
2021,12,27,02,01,-7.80
2021,12,27,02,02,-7.80
2021,12,27,02,03,-7.80
2021,12,27,02,04,-7.80
2021,12,27,02,05,-7.80
2021,12,27,02,06,-7.80
2021,12,27,02,07,-7.80
2021,12,27,02,08,-7.80
2021,12,27,02,09,-7.90
2021,12,27,02,10,-7.90
2021,12,27,02,11,-7.90
2021,12,27,02,12,-7.90
2021,12,27,02,13,-7.90
2021,12,27,02,14,-7.90
2021,12,27,02,15,-7.90
2021,12,27,02,16,-7.90
2021,12,27,02,17,-7.90
2021,12,27,02,18,-7.80
2021,12,27,02,19,-7.80
2021,12,27,02,20,-7.80
2021,12,27,02,21,-7.80
2021,12,27,02,22,-7.80
2021,12,27,02,23,-7.80
2021,12,27,02,24,-7.80
2021,12,27,02,25,-7.80
2021,12,27,02,26,-7.90
2021,12,27,02,27,-7.90
2021,12,27,02,28,-7.90
2021,12,27,02,29,-7.90
2021,12,27,02,30,-7.90
2021,12,27,02,31,-7.90
2021,12,27,02,32,-7.90
2021,12,27,02,33,-8.00
2021,12,27,02,34,-8.00
2021,12,27,02,35,-8.10
2021,12,27,02,36,-8.10
2021,12,27,02,37,-8.10
2021,12,27,02,38,-8.10
2021,12,27,02,39,-8.10
2021,12,27,02,40,-8.10
2021,12,27,02,41,-8.10
2021,12,27,02,42,-8.10
2021,12,27,02,43,-8.10
2021,12,27,02,44,-8.10
2021,12,27,02,45,-8.10
2021,12,27,02,46,-8.10
2021,12,27,02,47,-8.10
2021,12,27,02,48,-8.10
2021,12,27,02,49,-8.10
2021,12,27,02,50,-8.10
2021,12,27,02,51,-8.10
2021,12,27,02,52,-8.20
2021,12,27,02,53,-8.20
2021,12,27,02,54,-8.20
2021,12,27,02,55,-8.20
2021,12,27,02,56,-8.10
2021,12,27,02,57,-8.20
2021,12,27,02,58,-8.20
2021,12,27,02,59,-8.20
2021,12,27,03,00,-8.20
2021,12,27,03,01,-8.20
2021,12,27,03,02,-8.20
2021,12,27,03,03,-8.20
2021,12,27,03,04,-8.20
2021,12,27,03,05,-8.20
2021,12,27,03,06,-8.20
2021,12,27,03,07,-8.20
2021,12,27,03,08,-8.20
2021,12,27,03,09,-8.20
2021,12,27,03,10,-8.30
2021,12,27,03,11,-8.30
2021,12,27,03,12,-8.30
2021,12,27,03,13,-8.30
2021,12,27,03,14,-8.30
2021,12,27,03,15,-8.30
2021,12,27,03,16,-8.30
2021,12,27,03,17,-8.30
2021,12,27,03,18,-8.30
2021,12,27,03,19,-8.30
2021,12,27,03,20,-8.40
2021,12,27,03,21,-8.40
2021,12,27,03,22,-8.40
2021,12,27,03,23,-8.40
2021,12,27,03,24,-8.50
2021,12,27,03,25,-8.40
2021,12,27,03,26,-8.40
2021,12,27,03,27,-8.40
2021,12,27,03,28,-8.50
2021,12,27,03,29,-8.50
2021,12,27,03,30,-8.50
2021,12,27,03,31,-8.40
2021,12,27,03,32,-8.40
2021,12,27,03,33,-8.40
2021,12,27,03,34,-8.50
2021,12,27,03,35,-8.40
2021,12,27,03,36,-8.40
2021,12,27,03,37,-8.40
2021,12,27,03,38,-8.40
2021,12,27,03,39,-8.40
2021,12,27,03,40,-8.40
2021,12,27,03,41,-8.40
2021,12,27,03,42,-8.40
2021,12,27,03,43,-8.40
2021,12,27,03,44,-8.50
2021,12,27,03,45,-8.50
2021,12,27,03,46,-8.40
2021,12,27,03,47,-8.40
2021,12,27,03,48,-8.40
2021,12,27,03,49,-8.40
2021,12,27,03,50,-8.40
2021,12,27,03,51,-8.40
2021,12,27,03,52,-8.40
2021,12,27,03,53,-8.40
2021,12,27,03,54,-8.40
2021,12,27,03,55,-8.40
2021,12,27,03,56,-8.40
2021,12,27,03,57,-8.40
2021,12,27,03,58,-8.40
2021,12,27,03,59,-8.40
2021,12,27,04,00,-8.40
2021,12,27,04,01,-8.40
2021,12,27,04,02,-8.40
2021,12,27,04,03,-8.40
2021,12,27,04,04,-8.40
2021,12,27,04,05,-8.40
2021,12,27,04,06,-8.30
2021,12,27,04,07,-8.30
2021,12,27,04,08,-8.30
2021,12,27,04,09,-8.30
2021,12,27,04,10,-8.30
2021,12,27,04,11,-8.30
2021,12,27,04,12,-8.30
2021,12,27,04,13,-8.30
2021,12,27,04,14,-8.30
2021,12,27,04,15,-8.30
2021,12,27,04,16,-8.30
2021,12,27,04,17,-8.30
2021,12,27,04,18,-8.30
2021,12,27,04,19,-8.30
2021,12,27,04,20,-8.30
2021,12,27,04,21,-8.30
2021,12,27,04,22,-8.30
2021,12,27,04,23,-8.30
2021,12,27,04,24,-8.30
2021,12,27,04,25,-8.30
2021,12,27,04,26,-8.30
2021,12,27,04,27,-8.30
2021,12,27,04,28,-8.30
2021,12,27,04,29,-8.30
2021,12,27,04,30,-8.20
2021,12,27,04,31,-8.20
2021,12,27,04,32,-8.20
2021,12,27,04,33,-8.20
2021,12,27,04,34,-8.30
2021,12,27,04,35,-8.20
2021,12,27,04,36,-8.20
2021,12,27,04,37,-8.30
2021,12,27,04,38,-8.20
2021,12,27,04,39,-8.20
2021,12,27,04,40,-8.20
2021,12,27,04,41,-8.20
2021,12,27,04,42,-8.20
2021,12,27,04,43,-8.20
2021,12,27,04,44,-8.30
2021,12,27,04,45,-8.20
2021,12,27,04,46,-8.20
2021,12,27,04,47,-8.20
2021,12,27,04,48,-8.20
2021,12,27,04,49,-8.20
2021,12,27,04,50,-8.20
2021,12,27,04,51,-8.20
2021,12,27,04,52,-8.20
2021,12,27,04,53,-8.20
2021,12,27,04,54,-8.20
2021,12,27,04,55,-8.20
2021,12,27,04,56,-8.20
2021,12,27,04,57,-8.20
2021,12,27,04,58,-8.20
2021,12,27,04,59,-8.20
2021,12,27,05,00,-8.20
2021,12,27,05,01,-8.20
2021,12,27,05,02,-8.20
2021,12,27,05,03,-8.20
2021,12,27,05,04,-8.20
2021,12,27,05,05,-8.20
2021,12,27,05,06,-8.20
2021,12,27,05,07,-8.20
2021,12,27,05,08,-8.20
2021,12,27,05,09,-8.20
2021,12,27,05,10,-8.20
2021,12,27,05,11,-8.20
2021,12,27,05,12,-8.20
2021,12,27,05,13,-8.20
2021,12,27,05,14,-8.20
2021,12,27,05,15,-8.20
2021,12,27,05,16,-8.20
2021,12,27,05,17,-8.20
2021,12,27,05,18,-8.20
2021,12,27,05,19,-8.20
2021,12,27,05,20,-8.20
2021,12,27,05,21,-8.20
2021,12,27,05,22,-8.20
2021,12,27,05,23,-8.20
2021,12,27,05,24,-8.20
2021,12,27,05,25,-8.20
2021,12,27,05,26,-8.20
2021,12,27,05,27,-8.20
2021,12,27,05,28,-8.20
2021,12,27,05,29,-8.30
2021,12,27,05,30,-8.30
2021,12,27,05,31,-8.30
2021,12,27,05,32,-8.30
2021,12,27,05,33,-8.30
2021,12,27,05,34,-8.20
2021,12,27,05,35,-8.20
2021,12,27,05,36,-8.20
2021,12,27,05,37,-8.20
2021,12,27,05,38,-8.30
2021,12,27,05,39,-8.20
2021,12,27,05,40,-8.20
2021,12,27,05,41,-8.20
2021,12,27,05,42,-8.20
2021,12,27,05,43,-8.20
2021,12,27,05,44,-8.20
2021,12,27,05,45,-8.20
2021,12,27,05,46,-8.30
2021,12,27,05,47,-8.30
2021,12,27,05,48,-8.30
2021,12,27,05,49,-8.30
2021,12,27,05,50,-8.30
2021,12,27,05,51,-8.30
2021,12,27,05,52,-8.30
2021,12,27,05,53,-8.30
2021,12,27,05,54,-8.30
2021,12,27,05,55,-8.30
2021,12,27,05,56,-8.30
2021,12,27,05,57,-8.30
2021,12,27,05,58,-8.30
2021,12,27,05,59,-8.30
2021,12,27,06,00,-8.30
2021,12,27,06,01,-8.30
2021,12,27,06,02,-8.30
2021,12,27,06,03,-8.30
2021,12,27,06,04,-8.30
2021,12,27,06,05,-8.20
2021,12,27,06,06,-8.20
2021,12,27,06,07,-8.20
2021,12,27,06,08,-8.20
2021,12,27,06,09,-8.20
2021,12,27,06,10,-8.20
2021,12,27,06,11,-8.20
2021,12,27,06,12,-8.20
2021,12,27,06,13,-8.20
2021,12,27,06,14,-8.20
2021,12,27,06,15,-8.20
2021,12,27,06,16,-8.20
2021,12,27,06,17,-8.20
2021,12,27,06,18,-8.20
2021,12,27,06,19,-8.20
2021,12,27,06,20,-8.20
2021,12,27,06,21,-8.20
2021,12,27,06,22,-8.20
2021,12,27,06,23,-8.20
2021,12,27,06,24,-8.20
2021,12,27,06,25,-8.20
2021,12,27,06,26,-8.20
2021,12,27,06,27,-8.20
2021,12,27,06,28,-8.20
2021,12,27,06,29,-8.20
2021,12,27,06,30,-8.20
2021,12,27,06,31,-8.20
2021,12,27,06,32,-8.20
2021,12,27,06,33,-8.10
2021,12,27,06,34,-8.10
2021,12,27,06,35,-8.10
2021,12,27,06,36,-8.10
2021,12,27,06,37,-8.10
2021,12,27,06,38,-8.10
2021,12,27,06,39,-8.10
2021,12,27,06,40,-8.10
2021,12,27,06,41,-8.10
2021,12,27,06,42,-8.00
2021,12,27,06,43,-8.00
2021,12,27,06,44,-8.00
2021,12,27,06,45,-8.00
2021,12,27,06,46,-8.00
2021,12,27,06,47,-8.00
2021,12,27,06,48,-8.00
2021,12,27,06,49,-8.00
2021,12,27,06,50,-8.00
2021,12,27,06,51,-8.00
2021,12,27,06,52,-7.90
2021,12,27,06,53,-7.90
2021,12,27,06,54,-7.90
2021,12,27,06,55,-7.90
2021,12,27,06,56,-7.90
2021,12,27,06,57,-7.90
2021,12,27,06,58,-7.90
2021,12,27,06,59,-7.90
2021,12,27,07,00,-7.80
2021,12,27,07,01,-7.80
2021,12,27,07,02,-7.80
2021,12,27,07,03,-7.80
2021,12,27,07,04,-7.80
2021,12,27,07,05,-7.80
2021,12,27,07,06,-7.80
2021,12,27,07,07,-7.80
2021,12,27,07,08,-7.80
2021,12,27,07,09,-7.80
2021,12,27,07,10,-7.80
2021,12,27,07,11,-7.80
2021,12,27,07,12,-7.80
2021,12,27,07,13,-7.80
2021,12,27,07,14,-7.80
2021,12,27,07,15,-7.80
2021,12,27,07,16,-7.80
2021,12,27,07,17,-7.80
2021,12,27,07,18,-7.80
2021,12,27,07,19,-7.80
2021,12,27,07,20,-7.80
2021,12,27,07,21,-7.80
2021,12,27,07,22,-7.80
2021,12,27,07,23,-7.80
2021,12,27,07,24,-7.80
2021,12,27,07,25,-7.80
2021,12,27,07,26,-7.80
2021,12,27,07,27,-7.80
2021,12,27,07,28,-7.80
2021,12,27,07,29,-7.80
2021,12,27,07,30,-7.80
2021,12,27,07,31,-7.80
2021,12,27,07,32,-7.80
2021,12,27,07,33,-7.80
2021,12,27,07,34,-7.80
2021,12,27,07,35,-7.80
2021,12,27,07,36,-7.80
2021,12,27,07,37,-7.80
2021,12,27,07,38,-7.80
2021,12,27,07,39,-7.90
2021,12,27,07,40,-7.90
2021,12,27,07,41,-7.90
2021,12,27,07,42,-7.90
2021,12,27,07,43,-8.00
2021,12,27,07,44,-8.00
2021,12,27,07,45,-7.90
2021,12,27,07,46,-7.90
2021,12,27,07,47,-7.90
2021,12,27,07,48,-7.90
2021,12,27,07,49,-7.90
2021,12,27,07,50,-7.90
2021,12,27,07,51,-7.90
2021,12,27,07,52,-8.00
2021,12,27,07,53,-8.00
2021,12,27,07,54,-8.00
2021,12,27,07,55,-8.10
2021,12,27,07,56,-8.10
2021,12,27,07,57,-8.10
2021,12,27,07,58,-8.10
2021,12,27,07,59,-8.10
2021,12,27,08,00,-8.00
2021,12,27,08,01,-8.10
2021,12,27,08,02,-8.10
2021,12,27,08,03,-8.10
2021,12,27,08,04,-8.10
2021,12,27,08,05,-8.10
2021,12,27,08,06,-8.10
2021,12,27,08,07,-8.10
2021,12,27,08,08,-8.10
2021,12,27,08,09,-8.10
2021,12,27,08,10,-8.10
2021,12,27,08,11,-8.10
2021,12,27,08,12,-8.10
2021,12,27,08,13,-8.10
2021,12,27,08,14,-8.00
2021,12,27,08,15,-8.00
2021,12,27,08,16,-8.00
2021,12,27,08,17,-8.00
2021,12,27,08,18,-8.00
2021,12,27,08,19,-8.00
2021,12,27,08,20,-8.00
2021,12,27,08,21,-8.00
2021,12,27,08,22,-8.00
2021,12,27,08,23,-8.10
2021,12,27,08,24,-8.10
2021,12,27,08,25,-8.10
2021,12,27,08,26,-8.10
2021,12,27,08,27,-8.10
2021,12,27,08,28,-8.10
2021,12,27,08,29,-8.10
2021,12,27,08,30,-8.10
2021,12,27,08,31,-8.00
2021,12,27,08,32,-8.00
2021,12,27,08,33,-8.00
2021,12,27,08,34,-8.00
2021,12,27,08,35,-8.00
2021,12,27,08,36,-8.00
2021,12,27,08,37,-8.00
2021,12,27,08,38,-8.00
2021,12,27,08,39,-8.00
2021,12,27,08,40,-8.00
2021,12,27,08,41,-8.00
2021,12,27,08,42,-8.00
2021,12,27,08,43,-8.00
2021,12,27,08,44,-8.00
2021,12,27,08,45,-8.00
2021,12,27,08,46,-8.00
2021,12,27,08,47,-8.00
2021,12,27,08,48,-7.90
2021,12,27,08,49,-7.90
2021,12,27,08,50,-7.90
2021,12,27,08,51,-7.90
2021,12,27,08,52,-7.90
2021,12,27,08,53,-7.90
2021,12,27,08,54,-7.90
2021,12,27,08,55,-7.80
2021,12,27,08,56,-7.80
2021,12,27,08,57,-7.80
2021,12,27,08,58,-7.80
2021,12,27,08,59,-7.80
2021,12,27,09,00,-7.80
2021,12,27,09,01,-7.80
2021,12,27,09,02,-7.80
2021,12,27,09,03,-7.80
2021,12,27,09,04,-7.70
2021,12,27,09,05,-7.70
2021,12,27,09,06,-7.70
2021,12,27,09,07,-7.70
2021,12,27,09,08,-7.70
2021,12,27,09,09,-7.80
2021,12,27,09,10,-7.80
2021,12,27,09,11,-7.80
2021,12,27,09,12,-7.80
2021,12,27,09,13,-7.70
2021,12,27,09,14,-7.70
2021,12,27,09,15,-7.70
2021,12,27,09,16,-7.70
2021,12,27,09,17,-7.70
2021,12,27,09,18,-7.70
2021,12,27,09,19,-7.70
2021,12,27,09,20,-7.70
2021,12,27,09,21,-7.80
2021,12,27,09,22,-7.80
2021,12,27,09,23,-7.80
2021,12,27,09,24,-7.80
2021,12,27,09,25,-7.80
2021,12,27,09,26,-7.80
2021,12,27,09,27,-7.80
2021,12,27,09,28,-7.80
2021,12,27,09,29,-7.80
2021,12,27,09,30,-7.80
2021,12,27,09,31,-7.80
2021,12,27,09,32,-7.80
2021,12,27,09,33,-7.80
2021,12,27,09,34,-7.80
2021,12,27,09,35,-7.80
2021,12,27,09,36,-7.80
2021,12,27,09,37,-7.80
2021,12,27,09,38,-7.80
2021,12,27,09,39,-7.80
2021,12,27,09,40,-7.80
2021,12,27,09,41,-7.80
2021,12,27,09,42,-7.80
2021,12,27,09,43,-7.80
2021,12,27,09,44,-7.80
2021,12,27,09,45,-7.80
2021,12,27,09,46,-7.80
2021,12,27,09,47,-7.80
2021,12,27,09,48,-7.70
2021,12,27,09,49,-7.70
2021,12,27,09,50,-7.70
2021,12,27,09,51,-7.70
2021,12,27,09,52,-7.70
2021,12,27,09,53,-7.70
2021,12,27,09,54,-7.70
2021,12,27,09,55,-7.70
2021,12,27,09,56,-7.70
2021,12,27,09,57,-7.70
2021,12,27,09,58,-7.70
2021,12,27,09,59,-7.60
2021,12,27,10,00,-7.60
2021,12,27,10,01,-7.50
2021,12,27,10,02,-7.50
2021,12,27,10,03,-7.40
2021,12,27,10,04,-7.40
2021,12,27,10,05,-7.40
2021,12,27,10,06,-7.40
2021,12,27,10,07,-7.40
2021,12,27,10,08,-7.40
2021,12,27,10,09,-7.40
2021,12,27,10,10,-7.40
2021,12,27,10,11,-7.40
2021,12,27,10,12,-7.40
2021,12,27,10,13,-7.40
2021,12,27,10,14,-7.40
2021,12,27,10,15,-7.40
2021,12,27,10,16,-7.50
2021,12,27,10,17,-7.50
2021,12,27,10,18,-7.50
2021,12,27,10,19,-7.40
2021,12,27,10,20,-7.40
2021,12,27,10,21,-7.40
2021,12,27,10,22,-7.40
2021,12,27,10,23,-7.40
2021,12,27,10,24,-7.30
2021,12,27,10,25,-7.30
2021,12,27,10,26,-7.30
2021,12,27,10,27,-7.30
2021,12,27,10,28,-7.30
2021,12,27,10,29,-7.30
2021,12,27,10,30,-7.20
2021,12,27,10,31,-7.20
2021,12,27,10,32,-7.20
2021,12,27,10,33,-7.20
2021,12,27,10,34,-7.10
2021,12,27,10,35,-7.10
2021,12,27,10,36,-7.10
2021,12,27,10,37,-7.10
2021,12,27,10,38,-7.10
2021,12,27,10,39,-7.10
2021,12,27,10,40,-7.10
2021,12,27,10,41,-7.10
2021,12,27,10,42,-7.10
2021,12,27,10,43,-7.10
2021,12,27,10,44,-7.10
2021,12,27,10,45,-7.10
2021,12,27,10,46,-7.10
2021,12,27,10,47,-7.10
2021,12,27,10,48,-7.10
2021,12,27,10,49,-7.10
2021,12,27,10,50,-7.10
2021,12,27,10,51,-7.10
2021,12,27,10,52,-7.10
2021,12,27,10,53,-7.20
2021,12,27,10,54,-7.20
2021,12,27,10,55,-7.20
2021,12,27,10,56,-7.20
2021,12,27,10,57,-7.20
2021,12,27,10,58,-7.20
2021,12,27,10,59,-7.20
2021,12,27,11,00,-7.20
2021,12,27,11,01,-7.20
2021,12,27,11,02,-7.20
2021,12,27,11,03,-7.20
2021,12,27,11,04,-7.20
2021,12,27,11,05,-7.20
2021,12,27,11,06,-7.20
2021,12,27,11,07,-7.20
2021,12,27,11,08,-7.20
2021,12,27,11,09,-7.20
2021,12,27,11,10,-7.20
2021,12,27,11,11,-7.20
2021,12,27,11,12,-7.20
2021,12,27,11,13,-7.20
2021,12,27,11,14,-7.20
2021,12,27,11,15,-7.10
2021,12,27,11,16,-7.10
2021,12,27,11,17,-7.20
2021,12,27,11,18,-7.10
2021,12,27,11,19,-7.10
2021,12,27,11,20,-7.10
2021,12,27,11,21,-7.20
2021,12,27,11,22,-7.20
2021,12,27,11,23,-7.20
2021,12,27,11,24,-7.20
2021,12,27,11,25,-7.20
2021,12,27,11,26,-7.10
2021,12,27,11,27,-7.20
2021,12,27,11,28,-7.10
2021,12,27,11,29,-7.10
2021,12,27,11,30,-7.10
2021,12,27,11,31,-7.10
2021,12,27,11,32,-7.10
2021,12,27,11,33,-7.10
2021,12,27,11,34,-7.10
2021,12,27,11,35,-7.10
2021,12,27,11,36,-7.10
2021,12,27,11,37,-7.10
2021,12,27,11,38,-7.20
2021,12,27,11,39,-7.20
2021,12,27,11,40,-7.20
2021,12,27,11,41,-7.20
2021,12,27,11,42,-7.20
2021,12,27,11,43,-7.20
2021,12,27,11,44,-7.10
2021,12,27,11,45,-7.10
2021,12,27,11,46,-7.10
2021,12,27,11,47,-7.10
2021,12,27,11,48,-7.10
2021,12,27,11,49,-7.00
2021,12,27,11,50,-7.00
2021,12,27,11,51,-7.00
2021,12,27,11,52,-7.00
2021,12,27,11,53,-7.00
2021,12,27,11,54,-7.00
2021,12,27,11,55,-7.00
2021,12,27,11,56,-7.00
2021,12,27,11,57,-7.00
2021,12,27,11,58,-7.00
2021,12,27,11,59,-7.00
2021,12,27,12,00,-7.00
2021,12,27,12,01,-7.00
2021,12,27,12,02,-7.00
2021,12,27,12,03,-6.90
2021,12,27,12,04,-6.90
2021,12,27,12,05,-6.90
2021,12,27,12,06,-6.80
2021,12,27,12,07,-6.80
2021,12,27,12,08,-6.80
2021,12,27,12,09,-6.90
2021,12,27,12,10,-6.90
2021,12,27,12,11,-6.90
2021,12,27,12,12,-6.90
2021,12,27,12,13,-6.90
2021,12,27,12,14,-6.90
2021,12,27,12,15,-7.00
2021,12,27,12,16,-7.00
2021,12,27,12,17,-7.00
2021,12,27,12,18,-7.00
2021,12,27,12,19,-7.00
2021,12,27,12,20,-7.10
2021,12,27,12,21,-7.10
2021,12,27,12,22,-7.10
2021,12,27,12,23,-7.10
2021,12,27,12,24,-7.10
2021,12,27,12,25,-7.10
2021,12,27,12,26,-7.10
2021,12,27,12,27,-7.10
2021,12,27,12,28,-7.10
2021,12,27,12,29,-7.10
2021,12,27,12,30,-7.10
2021,12,27,12,31,-7.10
2021,12,27,12,32,-7.10
2021,12,27,12,33,-7.10
2021,12,27,12,34,-7.10
2021,12,27,12,35,-7.00
2021,12,27,12,36,-7.00
2021,12,27,12,37,-7.00
2021,12,27,12,38,-7.00
2021,12,27,12,39,-7.00
2021,12,27,12,40,-7.00
2021,12,27,12,41,-7.00
2021,12,27,12,42,-7.00
2021,12,27,12,43,-7.00
2021,12,27,12,44,-7.00
2021,12,27,12,45,-7.00
2021,12,27,12,46,-7.00
2021,12,27,12,47,-7.00
2021,12,27,12,48,-6.90
2021,12,27,12,49,-6.80
2021,12,27,12,50,-6.80
2021,12,27,12,51,-6.80
2021,12,27,12,52,-6.80
2021,12,27,12,53,-6.80
2021,12,27,12,54,-6.80
2021,12,27,12,55,-6.80
2021,12,27,12,56,-6.80
2021,12,27,12,57,-6.80
2021,12,27,12,58,-6.80
2021,12,27,12,59,-6.80
2021,12,27,14,23,-6.40
2021,12,27,14,24,-6.40
2021,12,27,14,25,-6.40
2021,12,27,14,26,-6.40
2021,12,27,14,27,-6.40
2021,12,27,14,28,-6.40
2021,12,27,14,29,-6.40
2021,12,27,14,30,-6.40
2021,12,27,14,31,-6.40
2021,12,27,14,32,-6.30
2021,12,27,14,33,-6.30
2021,12,27,14,34,-6.30
2021,12,27,14,35,-6.30
2021,12,27,14,36,-6.30
2021,12,27,14,37,-6.30
2021,12,27,14,38,-6.30
2021,12,27,14,39,-6.30
2021,12,27,14,40,-6.30
2021,12,27,14,41,-6.30
2021,12,27,14,42,-6.30
2021,12,27,14,43,-6.30
2021,12,27,14,44,-6.30
2021,12,27,14,45,-6.30
2021,12,27,14,46,-6.30
2021,12,27,14,47,-6.30
2021,12,27,14,48,-6.30
2021,12,27,14,49,-6.30
2021,12,27,14,50,-6.30
2021,12,27,14,51,-6.30
2021,12,27,14,52,-6.30
2021,12,27,14,53,-6.30
2021,12,27,14,54,-6.30
2021,12,27,14,55,-6.30
2021,12,27,14,56,-6.20
2021,12,27,14,57,-6.30
2021,12,27,14,58,-6.30
2021,12,27,14,59,-6.30
2021,12,27,15,00,-6.20
2021,12,27,15,01,-6.20
2021,12,27,15,02,-6.20
2021,12,27,15,03,-6.20
2021,12,27,15,04,-6.20
2021,12,27,15,05,-6.20
2021,12,27,15,06,-6.20
2021,12,27,15,07,-6.20
2021,12,27,15,08,-6.20
2021,12,27,15,09,-6.10
2021,12,27,15,10,-6.10
2021,12,27,15,11,-6.10
2021,12,27,15,12,-6.10
2021,12,27,15,13,-6.10
2021,12,27,15,14,-6.10
2021,12,27,15,15,-6.10
2021,12,27,15,16,-6.10
2021,12,27,15,17,-6.10
2021,12,27,15,18,-6.10
2021,12,27,15,19,-6.10
2021,12,27,15,20,-6.10
2021,12,27,15,21,-6.20
2021,12,27,15,22,-6.20
2021,12,27,15,23,-6.20
2021,12,27,15,24,-6.20
2021,12,27,15,25,-6.20
2021,12,27,15,26,-6.10
2021,12,27,15,27,-6.10
2021,12,27,15,28,-6.20
2021,12,27,15,29,-6.20
2021,12,27,15,30,-6.20
2021,12,27,15,31,-6.20
2021,12,27,15,32,-6.20
2021,12,27,15,33,-6.20
2021,12,27,15,34,-6.20
2021,12,27,15,35,-6.20
2021,12,27,15,36,-6.20
2021,12,27,15,37,-6.30
2021,12,27,15,38,-6.20
2021,12,27,15,39,-6.20
2021,12,27,15,40,-6.20
2021,12,27,15,41,-6.20
2021,12,27,15,42,-6.20
2021,12,27,15,43,-6.20
2021,12,27,15,44,-6.20
2021,12,27,15,45,-6.20
2021,12,27,15,46,-6.20
2021,12,27,15,47,-6.20
2021,12,27,15,48,-6.20
2021,12,27,15,49,-6.20
2021,12,27,15,50,-6.20
2021,12,27,15,51,-6.20
2021,12,27,15,52,-6.20
2021,12,27,15,53,-6.20
2021,12,27,15,54,-6.20
2021,12,27,15,55,-6.20
2021,12,27,15,56,-6.20
2021,12,27,15,57,-6.20
2021,12,27,15,58,-6.20
2021,12,27,15,59,-6.30
2021,12,27,16,00,-6.30
2021,12,27,16,01,-6.30
2021,12,27,16,02,-6.30
2021,12,27,16,03,-6.30
2021,12,27,16,04,-6.30
2021,12,27,16,05,-6.30
2021,12,27,16,06,-6.30
2021,12,27,16,07,-6.30
2021,12,27,16,08,-6.30
2021,12,27,16,09,-6.30
2021,12,27,16,10,-6.30
2021,12,27,16,11,-6.30
2021,12,27,16,12,-6.30
2021,12,27,16,13,-6.30
2021,12,27,16,14,-6.30
2021,12,27,16,15,-6.30
2021,12,27,16,16,-6.30
2021,12,27,16,17,-6.30
2021,12,27,16,18,-6.30
2021,12,27,16,19,-6.30
2021,12,27,16,20,-6.30
2021,12,27,16,21,-6.30
2021,12,27,16,22,-6.30
2021,12,27,16,23,-6.30
2021,12,27,16,24,-6.30
2021,12,27,16,25,-6.30
2021,12,27,16,26,-6.30
2021,12,27,16,27,-6.30
2021,12,27,16,28,-6.30
2021,12,27,16,29,-6.30
2021,12,27,16,30,-6.40
2021,12,27,16,31,-6.40
2021,12,27,16,32,-6.40
2021,12,27,16,33,-6.40
2021,12,27,16,34,-6.40
2021,12,27,16,35,-6.40
2021,12,27,16,36,-6.40
2021,12,27,16,37,-6.40
2021,12,27,16,38,-6.40
2021,12,27,16,39,-6.40
2021,12,27,16,40,-6.40
2021,12,27,16,41,-6.40
2021,12,27,16,42,-6.40
2021,12,27,16,43,-6.30
2021,12,27,16,44,-6.30
2021,12,27,16,45,-6.30
2021,12,27,16,46,-6.30
2021,12,27,16,47,-6.30
2021,12,27,16,48,-6.30
2021,12,27,16,49,-6.30
2021,12,27,16,50,-6.30
2021,12,27,16,51,-6.30
2021,12,27,16,52,-6.30
2021,12,27,16,53,-6.30
2021,12,27,16,54,-6.30
2021,12,27,16,55,-6.30
2021,12,27,16,56,-6.30
2021,12,27,16,57,-6.30
2021,12,27,16,58,-6.30
2021,12,27,16,59,-6.30
2021,12,27,17,00,-6.20
2021,12,27,17,01,-6.20
2021,12,27,17,02,-6.20
2021,12,27,17,03,-6.20
2021,12,27,17,04,-6.20
2021,12,27,17,05,-6.20
2021,12,27,17,06,-6.20
2021,12,27,17,07,-6.20
2021,12,27,17,08,-6.20
2021,12,27,17,09,-6.20
2021,12,27,17,10,-6.20
2021,12,27,17,11,-6.20
2021,12,27,17,12,-6.20
2021,12,27,17,13,-6.20
2021,12,27,17,14,-6.20
2021,12,27,17,15,-6.20
2021,12,27,17,16,-6.20
2021,12,27,17,17,-6.10
2021,12,27,17,18,-6.10
2021,12,27,17,19,-6.10
2021,12,27,17,20,-6.10
2021,12,27,17,21,-6.10
2021,12,27,17,22,-6.10
2021,12,27,17,23,-6.10
2021,12,27,17,24,-6.10
2021,12,27,17,25,-6.10
2021,12,27,17,26,-6.00
2021,12,27,17,27,-6.00
2021,12,27,17,28,-6.00
2021,12,27,17,29,-6.00
2021,12,27,17,30,-5.90
2021,12,27,17,31,-5.90
2021,12,27,17,32,-5.90
2021,12,27,17,33,-5.90
2021,12,27,17,34,-5.90
2021,12,27,17,35,-5.90
2021,12,27,17,36,-5.90
2021,12,27,17,37,-5.90
2021,12,27,17,38,-6.00
2021,12,27,17,39,-6.00
2021,12,27,17,40,-6.00
2021,12,27,17,41,-6.00
2021,12,27,17,42,-6.00
2021,12,27,17,43,-6.00
2021,12,27,17,44,-6.10
2021,12,27,17,45,-6.10
2021,12,27,17,46,-6.10
2021,12,27,17,47,-6.10
2021,12,27,17,48,-6.10
2021,12,27,17,49,-6.20
2021,12,27,17,50,-6.20
2021,12,27,17,51,-6.20
2021,12,27,17,52,-6.20
2021,12,27,17,53,-6.20
2021,12,27,17,54,-6.20
2021,12,27,17,55,-6.20
2021,12,27,17,56,-6.20
2021,12,27,17,57,-6.20
2021,12,27,17,58,-6.30
2021,12,27,17,59,-6.30
2021,12,27,18,00,-6.30
2021,12,27,18,01,-6.30
2021,12,27,18,02,-6.30
2021,12,27,18,03,-6.30
2021,12,27,18,04,-6.30
2021,12,27,18,05,-6.30
2021,12,27,18,06,-6.30
2021,12,27,18,07,-6.40
2021,12,27,18,08,-6.40
2021,12,27,18,09,-6.40
2021,12,27,18,10,-6.40
2021,12,27,18,11,-6.40
2021,12,27,18,12,-6.40
2021,12,27,18,13,-6.40
2021,12,27,18,14,-6.40
2021,12,27,18,15,-6.40
2021,12,27,18,16,-6.40
2021,12,27,18,17,-6.40
2021,12,27,18,18,-6.40
2021,12,27,18,19,-6.40
2021,12,27,18,20,-6.40
2021,12,27,18,21,-6.40
2021,12,27,18,22,-6.40
2021,12,27,18,23,-6.40
2021,12,27,18,24,-6.40
2021,12,27,18,25,-6.40
2021,12,27,18,26,-6.40
2021,12,27,18,27,-6.40
2021,12,27,18,28,-6.40
2021,12,27,18,29,-6.40
2021,12,27,18,30,-6.40
2021,12,27,18,31,-6.40
2021,12,27,18,32,-6.40
2021,12,27,18,33,-6.40
2021,12,27,18,34,-6.30
2021,12,27,18,35,-6.30
2021,12,27,18,36,-6.30
2021,12,27,18,37,-6.30
2021,12,27,18,38,-6.30
2021,12,27,18,39,-6.30
2021,12,27,18,40,-6.30
2021,12,27,18,41,-6.40
2021,12,27,18,42,-6.30